Home > Time Zones > World Clock > Weather > Serbia > Niš > Past weeks

Flag for Serbia Weather past 2 weeks in Niš, Serbia

Now
36 °F

Light snow. Broken clouds.


Feels Like: 30 °F
Forecast: 31 / 39 °F
Wind: 7 mph from North

Location: Nis Airport

Current Time: Mar 7, 2015 at 6:20:37 AM

Latest Report: Mar 7, 2015 at 6:00 AM


Visibility: N/A

Pressure: 30.30 "Hg

Humidity: 87%

Dew point: 32 °F

Location of NišLocation

Historic Weather in Niš — Graph

°F

Niš temperature yesterday

Maximum temperature yesterday: 41 °F (at 1:00 PM)
Minimum temperature yesterday: 32 °F (at 3:30 AM)
Average temperature yesterday: 37 °F

Past Weeks' High & Low Weather Summary

 TemperatureHumidityPressure
High64 °F (Feb 24, 4:00 PM)100% (Feb 26, 1:30 AM)30.39 "Hg (Feb 26, 1:30 AM)
Low25 °F (Feb 20, 5:00 AM)18% (Mar 4, 2:00 PM)29.59 "Hg (Feb 24, 3:30 PM)
Average46 °F70%29.98 "Hg
* Reported Feb 20 5:00 AM — Mar 7 5:00 AM, Niš, Weather by CustomWeather, © 2015

Note: Actual official high and low records may vary slightly from our data, if they occured in-between our weather recording intervals... More about our weather records

Advertising

Niš weather history for previous 24 hours

 ConditionsComfort  
Time TempWeatherWind HumidityBarometerVisibility
5:00 AM
Sat, Mar 7
37 °FLight snow. Partly cloudy.10 mph75%30.27 "HgN/A
4:30 AM37 °FPassing clouds.12 mph75%30.30 "HgN/A
4:00 AM37 °FPassing clouds.12 mph75%30.27 "HgN/A
3:30 AM37 °FPassing clouds.8 mph75%30.27 "HgN/A
3:00 AM37 °FPassing clouds.13 mph75%30.27 "HgN/A
2:30 AM37 °FPartly cloudy.5 mph75%30.27 "HgN/A
2:00 AM37 °FPartly cloudy.7 mph75%30.27 "HgN/A
1:30 AM37 °FPartly cloudy.6 mph75%30.27 "HgN/A
1:00 AM37 °FPartly cloudy.5 mph75%30.27 "HgN/A
12:30 AM37 °FLight rain. Partly cloudy.5 mph75%30.27 "HgN/A
12:00 AM37 °FPartly cloudy.7 mph75%30.27 "HgN/A
11:30 PM
Fri, Mar 6
37 °FPartly cloudy.5 mph75%30.27 "HgN/A
11:00 PM39 °FPartly cloudy.5 mph70%30.27 "HgN/A
10:30 PM39 °FPartly cloudy.8 mph70%30.27 "HgN/A
10:00 PM39 °FPartly cloudy.10 mph70%30.27 "HgN/A
9:30 PM39 °FPartly cloudy.15 mph70%30.27 "HgN/A
9:00 PM39 °FPartly cloudy.14 mph70%30.27 "HgN/A
8:30 PM39 °FPartly cloudy.12 mph70%30.27 "HgN/A
8:00 PM39 °FPartly cloudy.12 mph70%30.27 "HgN/A
7:30 PM37 °FPartly cloudy.14 mph75%30.27 "HgN/A
7:00 PM37 °FPartly cloudy.15 mph75%30.27 "HgN/A
6:30 PM37 °FPartly cloudy.15 mph75%30.30 "HgN/A
6:00 PM39 °FPartly cloudy.13 mph65%30.27 "HgN/A
5:30 PM39 °FPartly cloudy.13 mph70%30.27 "HgN/A
5:00 PM39 °FBroken clouds.13 mph70%30.27 "HgN/A
4:30 PM39 °FBroken clouds.8 mph70%30.27 "HgN/A
4:00 PM39 °FBroken clouds.5 mph70%30.24 "HgN/A
3:30 PM39 °FBroken clouds.8 mph70%30.24 "HgN/A
3:00 PM39 °FBroken clouds.8 mph70%30.24 "HgN/A
2:30 PM39 °FBroken clouds.8 mph70%30.24 "HgN/A
2:00 PM39 °FBroken clouds.6 mph70%30.27 "HgN/A
1:30 PM39 °FBroken clouds.9 mph70%30.27 "HgN/A
1:00 PM41 °FBroken clouds.9 mph66%30.24 "HgN/A
12:30 PM39 °FPartly sunny.6 mph75%30.27 "HgN/A
12:00 PM39 °FBroken clouds.8 mph75%30.27 "HgN/A
11:30 AM37 °FLight rain. Partly sunny.9 mph87%30.24 "HgN/A
11:00 AM37 °FLight rain. Partly sunny.12 mph93%30.24 "HgN/A
10:30 AM36 °FLight rain. Partly sunny.12 mph100%30.24 "HgN/A
10:00 AM36 °FLight rain. Broken clouds.14 mph100%30.24 "HgN/A
9:30 AM36 °FLight snow. Scattered clouds.13 mph93%30.24 "HgN/A
9:00 AM34 °FLight snow. Mostly cloudy.13 mph100%30.21 "HgN/A
8:30 AM34 °FLight snow. Cloudy.10 mph100%30.21 "Hg5 mi
8:00 AM34 °FSnow. Cloudy.12 mph100%30.21 "Hg2 mi
7:30 AM34 °FLight snow. Cloudy.13 mph93%30.18 "Hg5 mi
7:00 AM32 °FLight snow. Cloudy.12 mph100%30.15 "Hg5 mi
6:30 AM32 °FSnow. Mostly cloudy.10 mph100%30.15 "Hg1 mi
6:00 AM32 °FHeavy snow. Mostly cloudy.12 mph100%30.12 "Hg1 mi
Weather by CustomWeather, © 2015

See weather overviewHow to use our weather pages